RH
12 10 13 13 15 17 20 19 16 12 9 11 12 12 10 10 9 8 7 6 6 6 5 5 6 10 19 28 38 47 63 65 63 67 61 70 79 88 96 97 86 82 56 52
7 13 13 15 14 20 24 22 17 15 13 15 15 14 12 11 10 9 8 8 8 8 6 6 7 9 20 29 38 46 64 70 70 66 56 50 50 73 80 94 89 78 57 56
10 10 12 12 12 18 16 16 20 24 21 20 22 22 18 13 12 11 10 8 7 8 8 7 7 14 18 29 38 42 63 69 73 72 66 57 43 47 75 74 82 80 56 45
10 9 10 12 14 17 20 13 19 25 26 28 16 24 15 11 10 8 9 10 9 8 8 7 7 8 20 28 36 42 58 69 74 75 65 61 52 44 44 61 52 56 51 50
12 12 12 15 21 18 19 18 22 24 24 26 24 24 16 11 11 9 9 9 8 8 8 8 7 7 9 30 37 50 60 70 73 73 62 58 56 46 40 49 61 60 60 53
11 9 14 15 16 18 16 23 21 20 21 35 24 20 15 24 42 38 35 33 32 30 9 7 8 8 7 28 44 60 64 71 72 74 65 62 60 53 46 44 58 57 56 56
15 10 14 17 22 21 19 26 33 20 33 31 27 29 65 39 38 39 43 42 41 43 45 43 26 7 8 29 46 66 69 69 76 75 69 62 59 59 56 51 47 59 54 59
25 25 21 17 28 45 25 29 52 66 34 35 25 45 86 41 38 35 38 42 46 49 49 49 53 49 31 21 50 57 71 76 70 72 70 64 58 52 49 49 43 54 52 55
36 29 17 17 17 21 30 35 24 63 45 41 30 51 35 40 47 43 47 46 52 58 59 59 56 57 57 45 47 62 65 74 74 70 69 68 62 58 51 52 51 50 54 49
25 38 22 15 15 20 36 23 41 59 66 62 86 85 75 66 69 54 62 51 63 78 71 67 64 63 64 62 42 65 69 71 82 76 68 70 75 59 54 53 53 50 51 49
22 30 29 19 28 37 31 38 37 41 59 69 69 87 88 90 86 79 78 61 71 90 92 78 73 67 64 63 60 69 72 77 78 79 73 75 80 70 58 54 54 51 52 49
28 41 51 41 20 17 39 38 51 63 56 66 69 93 61 77 89 81 90 80 69 85 94 89 79 74 73 71 68 50 70 75 75 70 76 80 84 77 64 56 54 54 50 49
45 50 59 28 23 47 33 52 44 48 70 90 69 85 51 59 85 80 94 97 80 88 94 95 81 80 81 81 75 68 65 71 69 71 79 85 82 80 72 61 55 54 51 50
32 44 52 75 45 31 67 74 42 65 76 88 76 73 75 76 95 92 94 99 94 95 96 96 88 84 86 84 84 82 83 66 69 68 81 85 84 78 79 74 62 56 53 50
24 30 29 24 20 43 57 78 49 76 92 88 84 87 88 93 98 95 96 94 98 98 96 95 95 91 84 83 84 85 87 84 70 69 71 83 79 76 80 79 76 67 61 56
20 27 21 25 26 78 50 50 65 58 73 76 65 79 86 66 92 87 95 95 96 97 98 96 94 94 92 83 85 85 89 91 89 70 81 79 76 77 79 81 78 75 70 70
23 25 28 28 70 74 64 61 82 52 77 81 84 92 70 73 92 96 96 94 97 98 100 98 96 95 95 93 83 86 86 88 91 93 94 90 77 80 80 80 82 77 77 77
22 31 29 33 47 79 59 28 66 73 45 56 66 67 78 77 79 65 72 89 96 100 99 96 94 93 92 93 90 78 78 82 85 92 94 93 97 89 86 86 86 86 83 90
19 24 46 81 67 58 36 25 40 53 77 36 51 60 72 62 41 40 43 51 64 76 83 86 81 82 82 88 76 79 79 76 82 88 91 94 95 97 98 96 93 92 91 91
18 20 38 55 52 75 45 24 20 25 74 28 33 47 60 59 66 60 46 40 43 46 51 61 82 73 68 81 82 76 77 77 83 87 86 89 92 95 97 99 99 99 97 98
26 28 39 37 59 61 22 21 20 51 64 29 28 35 48 67 71 54 32 27 26 28 29 39 47 62 57 58 63 77 73 71 66 78 80 82 87 92 95 97 98 99 99 98
31 54 48 39 54 66 23 21 45 40 30 28 25 33 48 60 44 37 28 25 21 23 22 22 35 41 43 38 44 63 73 64 65 57 79 80 85 83 87 93 95 96 98 98
34 36 56 45 32 26 21 22 20 22 26 25 27 28 28 26 27 26 26 23 22 20 20 21 22 27 32 35 35 39 56 55 60 57 62 79 79 81 84 89 93 95 96 98
22 21 34 25 22 18 18 18 21 20 23 21 22 24 28 30 27 25 23 23 23 19 18 19 23 22 27 26 33 29 30 33 40 65 58 69 76 82 88 90 88 91 96 97
25 24 27 25 21 22 20 21 22 21 20 21 22 24 25 26 26 25 24 23 22 21 22 23 22 20 22 21 22 27 27 29 38 39 64 52 60 66 84 95 97 96 97 98
22 32 28 29 24 27 28 22 21 22 22 22 23 24 22 23 25 24 24 24 23 27 25 24 23 21 21 20 19 21 26 28 35 42 37 48 43 42 68 67 91 99 99 99
Wind_Speed
3 6 8 13 12 15 17 20 26 26 24 25 26 27 26 25 26 23 21 21 18 20 17 17 15 19 21 21 23 23 21 19 15 11 13 13 13 10 8 7 10 8 13 17
11 10 10 10 13 11 16 21 24 24 23 22 23 25 24 24 27 26 26 25 20 21 22 19 17 19 21 22 24 24 21 19 16 12 11 11 12 14 11 9 11 14 12 12
6 9 9 12 15 11 16 21 20 23 24 23 23 27 28 28 29 28 26 24 25 25 23 23 20 17 20 23 23 24 22 21 18 16 12 13 11 13 15 13 14 18 17 17
3 10 11 13 14 14 19 22 20 23 20 19 20 19 21 19 18 20 23 25 26 26 25 24 23 20 21 21 20 23 21 22 18 19 19 21 14 14 13 15 14 15 18 16
13 13 11 13 13 19 24 21 22 28 27 22 24 15 17 19 21 19 21 21 20 20 24 25 24 24 20 20 20 17 21 21 21 20 20 16 16 12 12 13 18 15 13 16
19 2 3 10 17 18 18 26 28 30 23 18 25 20 16 12 28 28 30 32 34 34 17 21 23 23 22 20 18 14 17 20 21 20 22 21 19 16 14 14 15 15 14 14
16 3 4 5 25 15 20 18 13 13 10 9 9 7 18 24 26 27 27 29 30 30 32 33 27 19 19 21 23 18 20 20 22 23 22 21 20 19 19 18 14 18 15 14
13 13 16 22 18 13 24 11 7 11 14 17 14 6 9 27 26 26 28 28 29 30 28 30 30 30 26 16 25 24 21 20 22 24 24 19 20 14 13 17 14 13 14 16
15 14 32 28 7 11 11 11 15 16 23 19 8 15 9 31 31 31 32 30 32 31 30 32 32 28 29 28 23 26 26 23 22 22 21 21 20 20 17 19 17 14 15 13
15 29 24 21 14 6 14 12 9 6 8 8 8 10 15 30 30 30 31 32 31 29 29 28 28 30 28 29 21 25 23 24 20 21 20 18 17 18 18 16 19 18 16 17
24 17 20 22 14 12 11 9 8 10 9 7 6 10 15 22 25 28 25 27 27 25 23 23 23 24 26 26 23 20 21 21 20 21 20 20 17 17 16 15 18 16 16 18
16 13 19 24 22 13 18 7 10 8 11 12 8 8 20 22 21 25 25 25 24 24 23 20 21 21 22 23 22 16 20 21 21 21 20 19 19 18 17 17 17 17 17 18
15 8 14 14 9 15 16 15 11 12 9 9 7 9 20 23 23 26 24 23 25 27 23 21 20 19 19 20 21 20 14 20 20 19 16 15 16 18 20 19 18 18 16 17
17 15 16 12 17 18 13 13 19 18 9 8 15 19 26 27 23 26 25 24 22 25 23 20 19 21 20 20 18 20 19 16 16 18 16 15 17 17 17 14 17 16 17 17
14 16 21 21 20 5 10 18 19 21 17 13 18 17 22 23 21 23 19 24 23 24 25 23 24 24 21 23 22 20 18 17 9 16 17 15 16 15 15 15 14 14 16 15
17 16 18 20 17 8 17 19 17 19 17 12 15 16 21 21 16 22 23 25 25 25 24 27 26 25 27 26 23 22 21 19 16 11 10 17 15 14 16 16 17 15 15 15
13 12 15 13 7 8 20 18 11 19 16 14 15 16 19 23 19 22 22 24 25 25 25 24 25 26 22 26 23 22 21 18 18 16 15 7 12 16 16 16 16 17 16 15
13 13 9 10 7 14 10 17 3 18 18 17 15 17 18 19 14 18 18 22 25 27 26 24 20 21 25 23 23 19 22 21 21 19 18 16 12 10 14 14 15 15 14 13
10 10 6 7 8 4 21 21 16 12 11 20 19 17 17 19 17 18 20 18 19 22 21 19 20 23 20 21 24 22 17 22 21 23 19 16 14 11 3 11 13 12 12 12
11 10 8 9 10 8 14 21 22 16 10 21 19 18 19 20 15 14 20 21 19 19 20 21 20 21 23 21 20 24 23 19 21 22 20 19 16 15 12 7 4 2 5 6
11 10 7 9 6 8 15 16 18 15 13 19 18 18 17 16 12 15 18 18 19 18 21 18 19 17 15 14 14 18 22 24 17 15 19 20 21 16 15 11 10 7 5 8
8 7 6 6 7 5 14 14 12 10 14 16 17 19 18 15 17 18 20 18 19 20 21 21 15 18 22 23 18 18 18 16 22 18 14 19 18 16 15 16 13 13 9 8
3 5 5 4 5 5 6 9 11 11 14 15 16 18 19 20 20 19 19 20 17 17 16 16 18 17 17 18 21 14 10 16 13 17 19 13 15 14 15 17 16 12 10 8
4 1 6 8 2 9 10 11 15 18 18 19 19 19 20 22 22 21 16 16 17 17 17 16 16 16 16 18 16 20 21 19 14 12 14 13 12 10 12 10 12 13 10 8
8 7 8 10 6 12 11 16 17 18 19 21 19 18 18 21 22 21 20 19 16 15 15 17 15 14 14 16 15 15 17 17 17 16 12 13 11 14 6 9 6 9 9 9
10 5 7 10 13 10 15 17 19 20 21 21 21 21 20 18 20 21 19 18 18 17 16 14 17 15 14 14 13 13 15 18 15 14 12 6 12 4 6 6 6 10 10 15
Wind_Direction
327 269 11 331 315 302 300 288 285 286 288 280 273 277 275 276 273 275 266 256 253 264 265 255 220 211 200 195 185 185 179 191 187 187 178 172 170 167 154 154 169 177 195 178
219 51 4 313 303 301 297 304 296 303 293 284 276 273 274 261 259 259 262 267 256 258 260 255 235 206 204 198 187 188 180 189 193 177 191 191 178 173 166 164 175 189 187 186
27 22 325 316 319 337 309 302 301 310 317 301 287 274 265 261 258 263 265 260 259 260 261 257 244 215 209 199 192 193 177 186 187 183 175 193 198 179 166 178 178 183 197 184
65 347 329 320 328 355 309 318 299 291 285 277 282 290 287 288 273 242 234 236 245 252 253 255 258 234 205 203 200 195 179 184 185 186 182 196 200 188 181 177 179 181 184 182
1 324 329 332 355 321 303 312 294 279 273 269 264 251 261 249 251 257 257 259 260 250 246 251 245 247 228 193 199 192 180 178 185 191 197 195 201 192 184 177 178 179 186 184
330 229 311 342 340 323 309 303 293 261 247 242 250 248 251 4 14 3 359 1 357 354 280 248 254 256 237 179 184 179 190 179 186 198 206 199 196 188 183 190 173 182 181 184
317 347 6 2 332 325 337 328 317 291 199 227 357 270 33 19 18 9 359 351 348 354 345 347 333 260 247 186 182 176 193 192 185 192 208 204 197 192 189 184 186 179 180 186
340 316 9 336 313 301 300 324 319 308 318 309 286 339 42 19 9 12 1 355 351 349 344 334 331 327 317 220 185 186 187 197 189 193 200 204 201 192 199 186 185 186 184 188
310 302 320 299 301 307 328 303 313 267 267 269 327 42 58 11 7 4 6 2 356 350 341 334 328 323 316 310 183 182 188 194 201 196 195 201 201 195 199 182 185 187 193 186
313 300 303 293 300 281 282 302 324 312 285 307 80 59 4 1 2 359 3 3 357 345 341 336 329 323 314 305 287 175 187 192 195 207 195 194 207 202 201 185 188 188 189 192
314 297 315 309 302 313 320 328 323 293 253 294 325 70 11 5 6 1 351 358 356 343 335 330 322 316 317 313 309 182 182 193 191 198 201 189 195 211 206 200 189 189 189 193
324 307 295 301 294 266 346 347 341 316 305 315 289 85 21 13 4 3 354 351 359 341 333 328 324 324 327 334 321 277 183 189 195 202 199 192 187 197 206 206 192 197 191 190
330 308 307 309 337 354 324 24 5 327 275 14 18 37 8 8 360 2 354 352 356 345 335 333 332 345 339 345 337 325 255 192 198 199 189 179 186 191 204 201 196 188 195 193
336 316 329 328 317 319 359 37 40 31 21 333 21 16 5 360 352 359 354 348 354 346 341 331 340 357 357 356 352 351 341 197 195 201 178 181 188 197 201 204 197 194 192 196
347 322 319 318 305 9 49 44 46 39 22 18 21 18 3 354 342 360 349 349 356 349 343 336 1 1 356 3 2 2 358 357 257 202 177 181 186 187 198 196 196 199 190 200
344 322 314 297 309 129 50 32 58 52 34 24 20 23 355 352 354 3 358 354 353 345 346 349 357 359 6 8 2 3 6 1 0 237 191 188 183 190 190 193 189 195 190 187
334 326 311 298 23 67 36 14 34 68 52 21 23 5 357 355 13 4 353 353 350 343 347 356 355 360 0 3 3 8 7 6 18 22 14 350 204 194 187 189 188 192 194 188
336 337 325 309 333 57 27 28 137 54 40 39 26 15 10 353 6 4 3 357 352 348 350 359 351 357 360 356 354 11 13 15 19 27 21 10 345 191 177 182 183 187 186 183
350 331 341 341 68 116 25 13 346 318 33 27 20 9 11 349 351 4 356 6 356 355 348 346 1 4 357 359 5 1 6 22 14 26 19 6 3 14 15 181 182 184 189 190
354 344 13 25 53 40 10 1 341 320 62 10 10 1 2 347 354 354 347 353 350 355 357 355 1 1 4 1 356 8 8 12 25 16 18 13 10 18 20 9 56 100 167 163
12 345 5 2 8 68 17 10 351 25 346 346 354 354 353 340 335 329 336 346 347 344 350 4 5 358 357 354 15 14 5 15 12 19 22 17 18 16 15 22 27 35 90 112
6 323 3 332 353 357 357 6 23 353 336 340 344 345 335 328 328 334 332 337 342 342 348 353 354 5 353 1 11 16 16 12 3 13 19 28 16 17 19 26 28 34 38 65
6 354 314 336 355 332 317 348 1 350 335 336 338 335 332 326 328 329 327 328 334 334 334 345 348 353 2 1 348 25 9 7 33 360 19 22 32 16 20 30 23 36 34 33
191 236 284 307 267 347 325 342 353 343 345 341 339 341 336 330 327 324 324 323 324 326 330 346 336 342 349 350 359 358 8 4 7 31 7 22 27 30 32 30 27 37 22 32
292 337 298 283 281 350 335 341 337 329 333 335 334 333 329 327 326 325 325 323 319 318 328 327 313 328 337 343 354 357 355 354 6 12 31 360 44 358 46 56 14 35 35 27
258 271 286 324 342 330 324 324 322 329 330 329 328 328 329 328 324 325 321 321 320 330 316 312 316 319 326 325 335 345 357 358 358 352 357 16 9 81 12 26 89 37 55 45